Location: P�rn�nmaa
(61.1833°N, 23.0000°E)
Time: 17:19:12
(UTC+00:00)

NOSS 3-4 (C) - Pass Details

Date: 08 December 2019
Orbit: 904 x 1309 km, 63.4° (Epoch: 19 January)

Event Time Altitude Azimuth Distance (km) Brightness Sun altitude
Rises 17:44:04 0° 253° (WSW) 3,585 7.4 -29.9°
Reaches altitude 10° 17:46:31 10° 255° (WSW) 2,675 6.6 -30.2°
Enters shadow 17:52:41 82° 326° (NW) 1,023 3.5 -30.9°
